contact:dominique.lefevre@mio.osupytheas.fr, maurice.libes@osupytheas.fr, didier.mallarino@osupytheas.fr
Project:EMSO http://www.emso-fr.org/EMSO-France
Depth: 2436.0 m
Title:EMSO Ligure Ouest : Data MII capteur MICROCAT
DateTime_Computer,Latitude,Longitude,Temperature,Conductivity,Pressure,DateTime_Instrument
DateTime_Computer,Latitude,Longitude,degC,S m-1,dbar,DateTime_Instrument
2022-07-18T00:02:43Z,42.805,6.029,13.3012,4.60046,2470.707,2022-7-18T02:04:30Z
2022-07-18T00:05:46Z,42.805,6.029,13.3011,4.60049,2470.67,2022-7-18T02:07:33Z
2022-07-18T00:08:49Z,42.805,6.029,13.3011,4.60045,2470.67,2022-7-18T02:10:36Z
2022-07-18T00:11:52Z,42.805,6.029,13.3006,4.60046,2470.67,2022-7-18T02:13:39Z
2022-07-18T00:14:55Z,42.805,6.029,13.3011,4.60045,2470.693,2022-7-18T02:16:42Z
2022-07-18T00:17:59Z,42.805,6.029,13.3004,4.60044,2470.73,2022-7-18T02:19:45Z
2022-07-18T00:21:02Z,42.805,6.029,13.3010,4.60044,2470.684,2022-7-18T02:22:48Z
2022-07-18T00:24:05Z,42.805,6.029,13.3010,4.60044,2470.67,2022-7-18T02:25:51Z
2022-07-18T00:27:08Z,42.805,6.029,13.3014,4.60045,2470.67,2022-7-18T02:28:55Z
2022-07-18T00:30:11Z,42.805,6.029,13.3007,4.60044,2470.656,2022-7-18T02:31:58Z
2022-07-18T00:33:14Z,42.805,6.029,13.3009,4.60044,2470.684,2022-7-18T02:35:01Z
2022-07-18T00:36:17Z,42.805,6.029,13.3011,4.60043,2470.67,2022-7-18T02:38:04Z
2022-07-18T00:39:20Z,42.805,6.029,13.3008,4.60043,2470.684,2022-7-18T02:41:07Z
2022-07-18T00:42:24Z,42.805,6.029,13.3006,4.60043,2470.67,2022-7-18T02:44:10Z
2022-07-18T00:45:27Z,42.805,6.029,13.3009,4.60043,2470.693,2022-7-18T02:47:13Z
2022-07-18T00:48:30Z,42.805,6.029,13.3007,4.60045,2470.67,2022-7-18T02:50:16Z
2022-07-18T00:51:33Z,42.805,6.029,13.3008,4.60044,2470.646,2022-7-18T02:53:20Z
2022-07-18T00:54:36Z,42.805,6.029,13.3006,4.60042,2470.67,2022-7-18T02:56:23Z
2022-07-18T00:57:39Z,42.805,6.029,13.3008,4.60042,2470.67,2022-7-18T02:59:26Z
2022-07-18T01:00:42Z,42.805,6.029,13.3009,4.60043,2470.646,2022-7-18T03:02:29Z
2022-07-18T01:03:45Z,42.805,6.029,13.3010,4.60042,2470.661,2022-7-18T03:05:32Z
2022-07-18T01:06:49Z,42.805,6.029,13.3009,4.60040,2470.646,2022-7-18T03:08:35Z
2022-07-18T01:09:52Z,42.805,6.029,13.3006,4.60041,2470.646,2022-7-18T03:11:38Z
2022-07-18T01:12:55Z,42.805,6.029,13.3009,4.60042,2470.637,2022-7-18T03:14:41Z
2022-07-18T01:15:58Z,42.805,6.029,13.3009,4.60042,2470.624,2022-7-18T03:17:44Z
2022-07-18T01:19:01Z,42.805,6.029,13.3009,4.60041,2470.646,2022-7-18T03:20:48Z
2022-07-18T01:22:04Z,42.805,6.029,13.3008,4.60040,2470.624,2022-7-18T03:23:51Z
2022-07-18T01:25:07Z,42.805,6.029,13.3009,4.60043,2470.646,2022-7-18T03:26:54Z
2022-07-18T01:28:10Z,42.805,6.029,13.3006,4.60041,2470.637,2022-7-18T03:29:57Z
2022-07-18T01:31:14Z,42.805,6.029,13.3008,4.60040,2470.6,2022-7-18T03:33:00Z
2022-07-18T01:34:17Z,42.805,6.029,13.3009,4.60040,2470.637,2022-7-18T03:36:03Z
2022-07-18T01:37:20Z,42.805,6.029,13.3009,4.60041,2470.624,2022-7-18T03:39:06Z
2022-07-18T01:40:23Z,42.805,6.029,13.3009,4.60039,2470.637,2022-7-18T03:42:09Z
2022-07-18T01:43:26Z,42.805,6.029,13.3009,4.60039,2470.6,2022-7-18T03:45:13Z
2022-07-18T01:46:29Z,42.805,6.029,13.3005,4.60042,2470.637,2022-7-18T03:48:16Z
2022-07-18T01:49:32Z,42.805,6.029,13.3005,4.60042,2470.624,2022-7-18T03:51:19Z
2022-07-18T01:52:35Z,42.805,6.029,13.3007,4.60040,2470.661,2022-7-18T03:54:22Z
2022-07-18T01:55:38Z,42.805,6.029,13.3007,4.60040,2470.624,2022-7-18T03:57:25Z
2022-07-18T01:58:42Z,42.805,6.029,13.3007,4.60040,2470.637,2022-7-18T04:00:28Z
2022-07-18T02:01:45Z,42.805,6.029,13.3007,4.60041,2470.6,2022-7-18T04:03:31Z
2022-07-18T02:04:48Z,42.805,6.029,13.3005,4.60040,2470.624,2022-7-18T04:06:34Z
2022-07-18T02:07:51Z,42.805,6.029,13.3007,4.60039,2470.6,2022-7-18T04:09:38Z
2022-07-18T02:10:54Z,42.805,6.029,13.3003,4.60039,2470.624,2022-7-18T04:12:41Z
2022-07-18T02:13:57Z,42.805,6.029,13.3009,4.60039,2470.646,2022-7-18T04:15:44Z
2022-07-18T02:17:00Z,42.805,6.029,13.3002,4.60040,2470.661,2022-7-18T04:18:47Z
2022-07-18T02:20:03Z,42.805,6.029,13.3006,4.60039,2470.637,2022-7-18T04:21:50Z
2022-07-18T02:23:07Z,42.805,6.029,13.3003,4.60039,2470.637,2022-7-18T04:24:53Z
2022-07-18T02:26:10Z,42.805,6.029,13.3011,4.60039,2470.6,2022-7-18T04:27:56Z
2022-07-18T02:29:13Z,42.805,6.029,13.3006,4.60040,2470.614,2022-7-18T04:30:59Z
2022-07-18T02:32:16Z,42.805,6.029,13.3009,4.60040,2470.577,2022-7-18T04:34:02Z
2022-07-18T02:35:19Z,42.805,6.029,13.3009,4.60039,2470.614,2022-7-18T04:37:06Z
2022-07-18T02:38:22Z,42.805,6.029,13.3004,4.60039,2470.614,2022-7-18T04:40:09Z
2022-07-18T02:41:25Z,42.805,6.029,13.3004,4.60040,2470.637,2022-7-18T04:43:12Z
2022-07-18T02:44:28Z,42.805,6.029,13.3009,4.60039,2470.6,2022-7-18T04:46:15Z
2022-07-18T02:47:32Z,42.805,6.029,13.3000,4.60039,2470.614,2022-7-18T04:49:18Z
2022-07-18T02:50:35Z,42.805,6.029,13.3005,4.60039,2470.577,2022-7-18T04:52:21Z
2022-07-18T02:53:38Z,42.805,6.029,13.3006,4.60039,2470.6,2022-7-18T04:55:24Z
2022-07-18T02:56:41Z,42.805,6.029,13.3007,4.60039,2470.6,2022-7-18T04:58:27Z
2022-07-18T02:59:44Z,42.805,6.029,13.3004,4.60038,2470.577,2022-7-18T05:01:31Z
2022-07-18T03:02:47Z,42.805,6.029,13.3006,4.60038,2470.6,2022-7-18T05:04:34Z
2022-07-18T03:05:50Z,42.805,6.029,13.3006,4.60039,2470.553,2022-7-18T05:07:37Z
2022-07-18T03:08:53Z,42.805,6.029,13.3007,4.60039,2470.6,2022-7-18T05:10:40Z
2022-07-18T03:11:57Z,42.805,6.029,13.3004,4.60039,2470.591,2022-7-18T05:13:43Z
2022-07-18T03:15:00Z,42.805,6.029,13.3004,4.60038,2470.577,2022-7-18T05:16:46Z
2022-07-18T03:18:03Z,42.805,6.029,13.3008,4.60039,2470.577,2022-7-18T05:19:49Z
2022-07-18T03:21:06Z,42.805,6.029,13.3009,4.60039,2470.553,2022-7-18T05:22:52Z
2022-07-18T03:24:09Z,42.805,6.029,13.3004,4.60039,2470.577,2022-7-18T05:25:56Z
2022-07-18T03:27:12Z,42.805,6.029,13.3006,4.60038,2470.6,2022-7-18T05:28:59Z
2022-07-18T03:30:15Z,42.805,6.029,13.3004,4.60038,2470.567,2022-7-18T05:32:02Z
2022-07-18T03:33:18Z,42.805,6.029,13.3008,4.60039,2470.553,2022-7-18T05:35:05Z
2022-07-18T03:36:21Z,42.805,6.029,13.3008,4.60039,2470.577,2022-7-18T05:38:08Z
2022-07-18T03:39:25Z,42.805,6.029,13.3004,4.60040,2470.553,2022-7-18T05:41:11Z
2022-07-18T03:42:28Z,42.805,6.029,13.3008,4.60039,2470.53,2022-7-18T05:44:14Z
2022-07-18T03:45:31Z,42.805,6.029,13.3008,4.60039,2470.516,2022-7-18T05:47:17Z
2022-07-18T03:48:34Z,42.805,6.029,13.3009,4.60039,2470.567,2022-7-18T05:50:21Z
2022-07-18T03:51:37Z,42.805,6.029,13.3006,4.60039,2470.544,2022-7-18T05:53:24Z
2022-07-18T03:54:40Z,42.805,6.029,13.3006,4.60039,2470.567,2022-7-18T05:56:27Z
2022-07-18T03:57:43Z,42.805,6.029,13.3005,4.60039,2470.483,2022-7-18T05:59:30Z
2022-07-18T04:00:46Z,42.805,6.029,13.3008,4.60039,2470.53,2022-7-18T06:02:33Z
2022-07-18T04:03:50Z,42.805,6.029,13.3011,4.60038,2470.553,2022-7-18T06:05:36Z
2022-07-18T04:06:53Z,42.805,6.029,13.3009,4.60039,2470.53,2022-7-18T06:08:39Z
2022-07-18T04:09:56Z,42.805,6.029,13.3008,4.60038,2470.553,2022-7-18T06:11:42Z
2022-07-18T04:12:59Z,42.805,6.029,13.3006,4.60039,2470.52,2022-7-18T06:14:45Z
2022-07-18T04:16:02Z,42.805,6.029,13.3006,4.60039,2470.53,2022-7-18T06:17:49Z
2022-07-18T04:19:05Z,42.805,6.029,13.3006,4.60038,2470.577,2022-7-18T06:20:52Z
2022-07-18T04:22:08Z,42.805,6.029,13.3006,4.60038,2470.53,2022-7-18T06:23:55Z
2022-07-18T04:25:11Z,42.805,6.029,13.3004,4.60039,2470.544,2022-7-18T06:26:58Z
2022-07-18T04:28:15Z,42.805,6.029,13.3005,4.60039,2470.544,2022-7-18T06:30:01Z
2022-07-18T04:31:18Z,42.805,6.029,13.3009,4.60039,2470.483,2022-7-18T06:33:04Z
2022-07-18T04:34:21Z,42.805,6.029,13.3008,4.60038,2470.507,2022-7-18T06:36:07Z
2022-07-18T04:37:24Z,42.805,6.029,13.3006,4.60039,2470.483,2022-7-18T06:39:10Z
2022-07-18T04:40:27Z,42.805,6.029,13.3006,4.60040,2470.493,2022-7-18T06:42:14Z
2022-07-18T04:43:30Z,42.805,6.029,13.3008,4.60038,2470.52,2022-7-18T06:45:17Z
2022-07-18T04:46:33Z,42.805,6.029,13.3003,4.60037,2470.544,2022-7-18T06:48:20Z
2022-07-18T04:49:36Z,42.805,6.029,13.3008,4.60038,2470.53,2022-7-18T06:51:23Z
2022-07-18T04:52:40Z,42.805,6.029,13.3009,4.60038,2470.53,2022-7-18T06:54:26Z
2022-07-18T04:55:43Z,42.805,6.029,13.3002,4.60039,2470.544,2022-7-18T06:57:29Z
2022-07-18T04:58:46Z,42.805,6.029,13.3006,4.60037,2470.507,2022-7-18T07:00:32Z
2022-07-18T05:01:49Z,42.805,6.029,13.3006,4.60037,2470.507,2022-7-18T07:03:35Z
2022-07-18T05:04:52Z,42.805,6.029,13.3004,4.60042,2470.507,2022-7-18T07:06:39Z
2022-07-18T05:07:55Z,42.805,6.029,13.3005,4.60037,2470.507,2022-7-18T07:09:42Z
2022-07-18T05:10:58Z,42.805,6.029,13.3005,4.60037,2470.507,2022-7-18T07:12:45Z
2022-07-18T05:14:01Z,42.805,6.029,13.3007,4.60038,2470.483,2022-7-18T07:15:48Z
2022-07-18T05:17:04Z,42.805,6.029,13.3005,4.60036,2470.544,2022-7-18T07:18:51Z
2022-07-18T05:20:08Z,42.805,6.029,13.3010,4.60038,2470.47,2022-7-18T07:21:54Z
2022-07-18T05:23:11Z,42.805,6.029,13.3005,4.60039,2470.53,2022-7-18T07:24:57Z
2022-07-18T05:26:14Z,42.805,6.029,13.3007,4.60037,2470.507,2022-7-18T07:28:00Z
2022-07-18T05:29:17Z,42.805,6.029,13.3007,4.60040,2470.507,2022-7-18T07:31:04Z
2022-07-18T05:32:20Z,42.805,6.029,13.3007,4.60037,2470.52,2022-7-18T07:34:07Z
2022-07-18T05:35:23Z,42.805,6.029,13.3007,4.60039,2470.52,2022-7-18T07:37:10Z
2022-07-18T05:38:26Z,42.805,6.029,13.3004,4.60038,2470.52,2022-7-18T07:40:13Z
2022-07-18T05:41:29Z,42.805,6.029,13.3009,4.60036,2470.507,2022-7-18T07:43:16Z
2022-07-18T05:44:33Z,42.805,6.029,13.3006,4.60039,2470.507,2022-7-18T07:46:19Z
2022-07-18T05:47:36Z,42.805,6.029,13.3008,4.60038,2470.52,2022-7-18T07:49:22Z
2022-07-18T05:50:39Z,42.805,6.029,13.3004,4.60039,2470.497,2022-7-18T07:52:25Z
2022-07-18T05:53:42Z,42.805,6.029,13.3011,4.60038,2470.544,2022-7-18T07:55:29Z
2022-07-18T05:56:45Z,42.805,6.029,13.3006,4.60039,2470.507,2022-7-18T07:58:32Z
2022-07-18T05:59:48Z,42.805,6.029,13.3006,4.60037,2470.507,2022-7-18T08:01:35Z
2022-07-18T06:02:51Z,42.805,6.029,13.3003,4.60036,2470.53,2022-7-18T08:04:38Z
2022-07-18T06:05:54Z,42.805,6.029,13.3006,4.60039,2470.53,2022-7-18T08:07:41Z
2022-07-18T06:08:58Z,42.805,6.029,13.3005,4.60039,2470.483,2022-7-18T08:10:44Z
2022-07-18T06:12:01Z,42.805,6.029,13.3006,4.60039,2470.507,2022-7-18T08:13:47Z
2022-07-18T06:15:04Z,42.805,6.029,13.3005,4.60039,2470.53,2022-7-18T08:16:50Z
2022-07-18T06:18:07Z,42.805,6.029,13.3010,4.60036,2470.497,2022-7-18T08:19:53Z
2022-07-18T06:21:10Z,42.805,6.029,13.3006,4.60037,2470.553,2022-7-18T08:22:57Z
2022-07-18T06:24:13Z,42.805,6.029,13.3003,4.60037,2470.53,2022-7-18T08:26:00Z
2022-07-18T06:27:16Z,42.805,6.029,13.3000,4.60036,2470.544,2022-7-18T08:29:03Z
2022-07-18T06:30:19Z,42.805,6.029,13.3005,4.60036,2470.52,2022-7-18T08:32:06Z
2022-07-18T06:33:22Z,42.805,6.029,13.3008,4.60035,2470.507,2022-7-18T08:35:09Z
2022-07-18T06:36:26Z,42.805,6.029,13.3011,4.60036,2470.53,2022-7-18T08:38:12Z
2022-07-18T06:39:29Z,42.805,6.029,13.3000,4.60037,2470.53,2022-7-18T08:41:15Z
2022-07-18T06:42:32Z,42.805,6.029,13.3003,4.60038,2470.53,2022-7-18T08:44:18Z
2022-07-18T06:45:35Z,42.805,6.029,13.3004,4.60036,2470.52,2022-7-18T08:47:22Z
2022-07-18T06:48:38Z,42.805,6.029,13.3004,4.60036,2470.553,2022-7-18T08:50:25Z
2022-07-18T06:51:41Z,42.805,6.029,13.3004,4.60035,2470.52,2022-7-18T08:53:28Z
2022-07-18T06:54:44Z,42.805,6.029,13.3003,4.60036,2470.544,2022-7-18T08:56:31Z
2022-07-18T06:57:47Z,42.805,6.029,13.3004,4.60036,2470.544,2022-7-18T08:59:34Z
2022-07-18T07:00:51Z,42.805,6.029,13.3001,4.60036,2470.544,2022-7-18T09:02:37Z
2022-07-18T07:03:54Z,42.805,6.029,13.3002,4.60037,2470.52,2022-7-18T09:05:40Z
2022-07-18T07:06:57Z,42.805,6.029,13.3005,4.60037,2470.53,2022-7-18T09:08:43Z
2022-07-18T07:10:00Z,42.805,6.029,13.3004,4.60035,2470.507,2022-7-18T09:11:47Z
2022-07-18T07:13:03Z,42.805,6.029,13.3006,4.60036,2470.53,2022-7-18T09:14:50Z
2022-07-18T07:16:06Z,42.805,6.029,13.3009,4.60037,2470.553,2022-7-18T09:17:53Z
2022-07-18T07:19:09Z,42.805,6.029,13.3001,4.60039,2470.553,2022-7-18T09:20:56Z
2022-07-18T07:22:12Z,42.805,6.029,13.3006,4.60035,2470.53,2022-7-18T09:23:59Z
2022-07-18T07:25:16Z,42.805,6.029,13.3006,4.60035,2470.553,2022-7-18T09:27:02Z
2022-07-18T07:28:19Z,42.805,6.029,13.3004,4.60037,2470.567,2022-7-18T09:30:05Z
2022-07-18T07:31:22Z,42.805,6.029,13.3004,4.60036,2470.553,2022-7-18T09:33:08Z
2022-07-18T07:34:25Z,42.805,6.029,13.3004,4.60039,2470.544,2022-7-18T09:36:12Z
2022-07-18T07:37:28Z,42.805,6.029,13.3007,4.60038,2470.53,2022-7-18T09:39:15Z
2022-07-18T07:40:31Z,42.805,6.029,13.3004,4.60038,2470.53,2022-7-18T09:42:18Z
2022-07-18T07:43:34Z,42.805,6.029,13.3006,4.60039,2470.553,2022-7-18T09:45:21Z
2022-07-18T07:46:37Z,42.805,6.029,13.3004,4.60036,2470.553,2022-7-18T09:48:24Z
2022-07-18T07:49:41Z,42.805,6.029,13.3006,4.60037,2470.553,2022-7-18T09:51:27Z
2022-07-18T07:52:44Z,42.805,6.029,13.3006,4.60037,2470.567,2022-7-18T09:54:30Z
2022-07-18T07:55:47Z,42.805,6.029,13.3002,4.60038,2470.553,2022-7-18T09:57:33Z
2022-07-18T07:58:50Z,42.805,6.029,13.3005,4.60039,2470.553,2022-7-18T10:00:36Z
2022-07-18T08:01:53Z,42.805,6.029,13.3004,4.60036,2470.591,2022-7-18T10:03:40Z
2022-07-18T08:04:56Z,42.805,6.029,13.3004,4.60036,2470.53,2022-7-18T10:06:43Z
2022-07-18T08:07:59Z,42.805,6.029,13.3007,4.60037,2470.567,2022-7-18T10:09:46Z
2022-07-18T08:11:02Z,42.805,6.029,13.3009,4.60041,2470.553,2022-7-18T10:12:49Z
2022-07-18T08:14:06Z,42.805,6.029,13.3006,4.60037,2470.6,2022-7-18T10:15:52Z
2022-07-18T08:17:09Z,42.805,6.029,13.3000,4.60037,2470.577,2022-7-18T10:18:55Z
2022-07-18T08:20:12Z,42.805,6.029,13.3001,4.60037,2470.6,2022-7-18T10:21:58Z
2022-07-18T08:23:15Z,42.805,6.029,13.3004,4.60039,2470.577,2022-7-18T10:25:01Z
2022-07-18T08:26:18Z,42.805,6.029,13.3005,4.60037,2470.577,2022-7-18T10:28:05Z
2022-07-18T08:29:21Z,42.805,6.029,13.3005,4.60036,2470.6,2022-7-18T10:31:08Z
2022-07-18T08:32:24Z,42.805,6.029,13.3006,4.60038,2470.624,2022-7-18T10:34:11Z
2022-07-18T08:35:27Z,42.805,6.029,13.3006,4.60036,2470.53,2022-7-18T10:37:14Z
2022-07-18T08:38:31Z,42.805,6.029,13.3006,4.60038,2470.577,2022-7-18T10:40:17Z
2022-07-18T08:41:34Z,42.805,6.029,13.3006,4.60039,2470.6,2022-7-18T10:43:20Z
2022-07-18T08:44:37Z,42.805,6.029,13.3006,4.60036,2470.577,2022-7-18T10:46:23Z
2022-07-18T08:47:40Z,42.805,6.029,13.3004,4.60039,2470.567,2022-7-18T10:49:27Z
2022-07-18T08:50:43Z,42.805,6.029,13.3006,4.60037,2470.577,2022-7-18T10:52:30Z
2022-07-18T08:53:46Z,42.805,6.029,13.3006,4.60038,2470.614,2022-7-18T10:55:33Z
2022-07-18T08:56:49Z,42.805,6.029,13.3002,4.60036,2470.577,2022-7-18T10:58:36Z
2022-07-18T08:59:52Z,42.805,6.029,13.3007,4.60040,2470.577,2022-7-18T11:01:39Z
2022-07-18T09:02:56Z,42.805,6.029,13.3005,4.60038,2470.624,2022-7-18T11:04:42Z
2022-07-18T09:05:59Z,42.805,6.029,13.3004,4.60036,2470.614,2022-7-18T11:07:45Z
2022-07-18T09:09:02Z,42.805,6.029,13.3006,4.60040,2470.577,2022-7-18T11:10:48Z
2022-07-18T09:12:05Z,42.805,6.029,13.3000,4.60042,2470.577,2022-7-18T11:13:52Z
2022-07-18T09:15:08Z,42.805,6.029,13.3000,4.60036,2470.6,2022-7-18T11:16:55Z
2022-07-18T09:18:11Z,42.805,6.029,13.3004,4.60035,2470.614,2022-7-18T11:19:58Z
2022-07-18T09:21:14Z,42.805,6.029,13.3004,4.60036,2470.6,2022-7-18T11:23:01Z
2022-07-18T09:24:17Z,42.805,6.029,13.3008,4.60039,2470.624,2022-7-18T11:26:04Z
2022-07-18T09:27:21Z,42.805,6.029,13.3006,4.60039,2470.6,2022-7-18T11:29:07Z
2022-07-18T09:30:24Z,42.805,6.029,13.3004,4.60042,2470.624,2022-7-18T11:32:10Z
2022-07-18T09:33:27Z,42.805,6.029,13.3003,4.60041,2470.624,2022-7-18T11:35:13Z
2022-07-18T09:36:30Z,42.805,6.029,13.3004,4.60039,2470.6,2022-7-18T11:38:17Z
2022-07-18T09:39:33Z,42.805,6.029,13.3003,4.60037,2470.624,2022-7-18T11:41:20Z
2022-07-18T09:42:36Z,42.805,6.029,13.3006,4.60038,2470.624,2022-7-18T11:44:23Z
2022-07-18T09:45:39Z,42.805,6.029,13.3006,4.60041,2470.661,2022-7-18T11:47:26Z
2022-07-18T09:48:42Z,42.805,6.029,13.3008,4.60056,2470.661,2022-7-18T11:50:29Z
2022-07-18T09:51:46Z,42.805,6.029,13.3006,4.60040,2470.577,2022-7-18T11:53:32Z
2022-07-18T09:54:49Z,42.805,6.029,13.3003,4.60042,2470.624,2022-7-18T11:56:35Z
2022-07-18T09:57:52Z,42.805,6.029,13.3005,4.60039,2470.614,2022-7-18T11:59:38Z
2022-07-18T10:00:55Z,42.805,6.029,13.3006,4.60042,2470.637,2022-7-18T12:02:41Z
2022-07-18T10:03:58Z,42.805,6.029,13.3002,4.60039,2470.637,2022-7-18T12:05:45Z
2022-07-18T10:07:01Z,42.805,6.029,13.3010,4.60039,2470.624,2022-7-18T12:08:48Z
2022-07-18T10:10:04Z,42.805,6.029,13.3004,4.60042,2470.6,2022-7-18T12:11:51Z
2022-07-18T10:13:07Z,42.805,6.029,13.3011,4.60042,2470.6,2022-7-18T12:14:54Z
2022-07-18T10:16:11Z,42.805,6.029,13.3004,4.60039,2470.646,2022-7-18T12:17:57Z
2022-07-18T10:19:14Z,42.805,6.029,13.3006,4.60039,2470.637,2022-7-18T12:21:00Z
2022-07-18T10:22:17Z,42.805,6.029,13.3009,4.60040,2470.591,2022-7-18T12:24:03Z
2022-07-18T10:25:20Z,42.805,6.029,13.3008,4.60042,2470.614,2022-7-18T12:27:06Z
2022-07-18T10:28:23Z,42.805,6.029,13.3006,4.60044,2470.614,2022-7-18T12:30:10Z
2022-07-18T10:31:26Z,42.805,6.029,13.3004,4.60040,2470.614,2022-7-18T12:33:13Z
2022-07-18T10:34:29Z,42.805,6.029,13.3009,4.60039,2470.586,2022-7-18T12:36:16Z
2022-07-18T10:37:32Z,42.805,6.029,13.3009,4.60043,2470.646,2022-7-18T12:39:19Z
2022-07-18T10:40:36Z,42.805,6.029,13.3009,4.60044,2470.637,2022-7-18T12:42:22Z
2022-07-18T10:43:39Z,42.805,6.029,13.3008,4.60047,2470.6,2022-7-18T12:45:25Z
2022-07-18T10:46:42Z,42.805,6.029,13.3011,4.60039,2470.6,2022-7-18T12:48:28Z
2022-07-18T10:49:45Z,42.805,6.029,13.3006,4.60039,2470.6,2022-7-18T12:51:32Z
2022-07-18T10:52:48Z,42.805,6.029,13.3006,4.60039,2470.6,2022-7-18T12:54:35Z
2022-07-18T10:55:51Z,42.805,6.029,13.3004,4.60039,2470.624,2022-7-18T12:57:38Z
2022-07-18T10:58:54Z,42.805,6.029,13.3006,4.60041,2470.637,2022-7-18T13:00:41Z
2022-07-18T11:01:57Z,42.805,6.029,13.3006,4.60040,2470.6,2022-7-18T13:03:44Z
2022-07-18T11:05:01Z,42.805,6.029,13.3009,4.60040,2470.6,2022-7-18T13:06:47Z
2022-07-18T11:08:04Z,42.805,6.029,13.3003,4.60041,2470.661,2022-7-18T13:09:50Z
2022-07-18T11:11:07Z,42.805,6.029,13.3005,4.60041,2470.6,2022-7-18T13:12:53Z
2022-07-18T11:14:10Z,42.805,6.029,13.3006,4.60043,2470.624,2022-7-18T13:15:57Z
2022-07-18T11:17:13Z,42.805,6.029,13.3006,4.60044,2470.624,2022-7-18T13:19:00Z
2022-07-18T11:20:16Z,42.805,6.029,13.3006,4.60043,2470.6,2022-7-18T13:22:03Z
2022-07-18T11:23:19Z,42.805,6.029,13.3004,4.60041,2470.6,2022-7-18T13:25:06Z
2022-07-18T11:26:22Z,42.805,6.029,13.3006,4.60043,2470.614,2022-7-18T13:28:09Z
2022-07-18T11:29:26Z,42.805,6.029,13.3006,4.60040,2470.577,2022-7-18T13:31:12Z
2022-07-18T11:32:29Z,42.805,6.029,13.3002,4.60044,2470.624,2022-7-18T13:34:15Z
2022-07-18T11:35:32Z,42.805,6.029,13.3006,4.60044,2470.577,2022-7-18T13:37:18Z
2022-07-18T11:38:35Z,42.805,6.029,13.3008,4.60042,2470.577,2022-7-18T13:40:22Z
2022-07-18T11:41:38Z,42.805,6.029,13.3006,4.60052,2470.624,2022-7-18T13:43:25Z
2022-07-18T11:44:41Z,42.805,6.029,13.3007,4.60044,2470.614,2022-7-18T13:46:28Z
2022-07-18T11:47:44Z,42.805,6.029,13.3005,4.60047,2470.614,2022-7-18T13:49:31Z
2022-07-18T11:50:47Z,42.805,6.029,13.3008,4.60046,2470.637,2022-7-18T13:52:34Z
2022-07-18T11:53:51Z,42.805,6.029,13.3006,4.60047,2470.586,2022-7-18T13:55:37Z
2022-07-18T11:56:54Z,42.805,6.029,13.3004,4.60044,2470.6,2022-7-18T13:58:40Z
2022-07-18T11:59:57Z,42.805,6.029,13.3007,4.60045,2470.577,2022-7-18T14:01:43Z
2022-07-18T12:03:00Z,42.805,6.029,13.3005,4.60046,2470.591,2022-7-18T14:04:47Z
2022-07-18T12:06:03Z,42.805,6.029,13.3005,4.60044,2470.6,2022-7-18T14:07:50Z
2022-07-18T12:09:06Z,42.805,6.029,13.3008,4.60041,2470.577,2022-7-18T14:10:53Z
2022-07-18T12:12:09Z,42.805,6.029,13.3008,4.60042,2470.577,2022-7-18T14:13:56Z
2022-07-18T12:15:12Z,42.805,6.029,13.3009,4.60042,2470.6,2022-7-18T14:16:59Z
2022-07-18T12:18:16Z,42.805,6.029,13.3004,4.60041,2470.577,2022-7-18T14:20:02Z
2022-07-18T12:21:19Z,42.805,6.029,13.3002,4.60042,2470.591,2022-7-18T14:23:05Z
2022-07-18T12:24:22Z,42.805,6.029,13.3008,4.60039,2470.591,2022-7-18T14:26:08Z
2022-07-18T12:27:25Z,42.805,6.029,13.3004,4.60040,2470.614,2022-7-18T14:29:12Z
2022-07-18T12:30:28Z,42.805,6.029,13.3006,4.60044,2470.577,2022-7-18T14:32:15Z
2022-07-18T12:33:31Z,42.805,6.029,13.3001,4.60043,2470.614,2022-7-18T14:35:18Z
2022-07-18T12:36:34Z,42.805,6.029,13.3006,4.60042,2470.6,2022-7-18T14:38:21Z
2022-07-18T12:39:37Z,42.805,6.029,13.3006,4.60039,2470.567,2022-7-18T14:41:24Z
2022-07-18T12:42:41Z,42.805,6.029,13.3004,4.60042,2470.591,2022-7-18T14:44:27Z
2022-07-18T12:45:44Z,42.805,6.029,13.3008,4.60041,2470.577,2022-7-18T14:47:30Z
2022-07-18T12:48:47Z,42.805,6.029,13.3007,4.60042,2470.577,2022-7-18T14:50:33Z
2022-07-18T12:51:50Z,42.805,6.029,13.3006,4.60043,2470.577,2022-7-18T14:53:37Z
2022-07-18T12:54:53Z,42.805,6.029,13.3006,4.60042,2470.53,2022-7-18T14:56:40Z
2022-07-18T12:57:56Z,42.805,6.029,13.3004,4.60043,2470.577,2022-7-18T14:59:43Z
2022-07-18T13:00:59Z,42.805,6.029,13.3009,4.60046,2470.6,2022-7-18T15:02:46Z
2022-07-18T13:04:02Z,42.805,6.029,13.3004,4.60040,2470.553,2022-7-18T15:05:49Z
2022-07-18T13:07:06Z,42.805,6.029,13.3003,4.60042,2470.567,2022-7-18T15:08:52Z
2022-07-18T13:10:09Z,42.805,6.029,13.3007,4.60040,2470.577,2022-7-18T15:11:55Z
2022-07-18T13:13:12Z,42.805,6.029,13.3007,4.60040,2470.577,2022-7-18T15:14:58Z
2022-07-18T13:16:15Z,42.805,6.029,13.3007,4.60040,2470.591,2022-7-18T15:18:02Z
2022-07-18T13:19:18Z,42.805,6.029,13.3005,4.60043,2470.53,2022-7-18T15:21:05Z
2022-07-18T13:22:21Z,42.805,6.029,13.3007,4.60039,2470.577,2022-7-18T15:24:08Z
2022-07-18T13:25:24Z,42.805,6.029,13.3005,4.60040,2470.553,2022-7-18T15:27:11Z
2022-07-18T13:28:27Z,42.805,6.029,13.3006,4.60043,2470.553,2022-7-18T15:30:14Z
2022-07-18T13:31:31Z,42.805,6.029,13.3004,4.60042,2470.567,2022-7-18T15:33:17Z
2022-07-18T13:34:34Z,42.805,6.029,13.3005,4.60045,2470.553,2022-7-18T15:36:20Z
2022-07-18T13:37:37Z,42.805,6.029,13.3007,4.60044,2470.591,2022-7-18T15:39:23Z
2022-07-18T13:40:40Z,42.805,6.029,13.3003,4.60041,2470.567,2022-7-18T15:42:27Z
2022-07-18T13:43:43Z,42.805,6.029,13.3005,4.60042,2470.53,2022-7-18T15:45:30Z
2022-07-18T13:46:46Z,42.805,6.029,13.3003,4.60042,2470.544,2022-7-18T15:48:33Z
2022-07-18T13:49:49Z,42.805,6.029,13.3006,4.60041,2470.553,2022-7-18T15:51:36Z
2022-07-18T13:52:52Z,42.805,6.029,13.3006,4.60039,2470.567,2022-7-18T15:54:39Z
2022-07-18T13:55:56Z,42.805,6.029,13.3005,4.60039,2470.53,2022-7-18T15:57:42Z
2022-07-18T13:58:59Z,42.805,6.029,13.3005,4.60042,2470.53,2022-7-18T16:00:45Z
2022-07-18T14:02:02Z,42.805,6.029,13.3007,4.60043,2470.591,2022-7-18T16:03:48Z
2022-07-18T14:05:05Z,42.805,6.029,13.3004,4.60041,2470.591,2022-7-18T16:06:52Z
2022-07-18T14:08:08Z,42.805,6.029,13.3004,4.60041,2470.553,2022-7-18T16:09:55Z
2022-07-18T14:11:11Z,42.805,6.029,13.3002,4.60044,2470.567,2022-7-18T16:12:58Z
2022-07-18T14:14:14Z,42.805,6.029,13.3006,4.60040,2470.567,2022-7-18T16:16:01Z
2022-07-18T14:17:17Z,42.805,6.029,13.3009,4.60042,2470.544,2022-7-18T16:19:04Z
2022-07-18T14:20:21Z,42.805,6.029,13.3004,4.60042,2470.544,2022-7-18T16:22:07Z
2022-07-18T14:23:24Z,42.805,6.029,13.3004,4.60043,2470.553,2022-7-18T16:25:10Z
2022-07-18T14:26:27Z,42.805,6.029,13.3004,4.60043,2470.553,2022-7-18T16:28:13Z
2022-07-18T14:29:30Z,42.805,6.029,13.3006,4.60041,2470.553,2022-7-18T16:31:17Z
2022-07-18T14:32:33Z,42.805,6.029,13.3006,4.60042,2470.544,2022-7-18T16:34:20Z
2022-07-18T14:35:36Z,42.805,6.029,13.3008,4.60042,2470.53,2022-7-18T16:37:23Z
2022-07-18T14:38:39Z,42.805,6.029,13.3004,4.60041,2470.544,2022-7-18T16:40:26Z
2022-07-18T14:41:43Z,42.805,6.029,13.3002,4.60042,2470.52,2022-7-18T16:43:29Z
2022-07-18T14:44:46Z,42.805,6.029,13.3004,4.60040,2470.53,2022-7-18T16:46:32Z
2022-07-18T14:47:49Z,42.805,6.029,13.3006,4.60041,2470.52,2022-7-18T16:49:35Z
2022-07-18T14:50:52Z,42.805,6.029,13.3006,4.60040,2470.507,2022-7-18T16:52:39Z
2022-07-18T14:53:55Z,42.805,6.029,13.3005,4.60041,2470.483,2022-7-18T16:55:42Z
2022-07-18T14:56:58Z,42.805,6.029,13.3006,4.60041,2470.53,2022-7-18T16:58:45Z
2022-07-18T15:00:01Z,42.805,6.029,13.3006,4.60041,2470.507,2022-7-18T17:01:48Z
2022-07-18T15:03:04Z,42.805,6.029,13.3006,4.60041,2470.553,2022-7-18T17:04:51Z
2022-07-18T15:06:08Z,42.805,6.029,13.3009,4.60041,2470.544,2022-7-18T17:07:54Z
2022-07-18T15:09:11Z,42.805,6.029,13.3011,4.60039,2470.53,2022-7-18T17:10:57Z
2022-07-18T15:12:14Z,42.805,6.029,13.3007,4.60041,2470.47,2022-7-18T17:14:00Z
2022-07-18T15:15:17Z,42.805,6.029,13.3004,4.60039,2470.483,2022-7-18T17:17:04Z